Starlink 3623

operational
NORAD ID: 51772 Int'l Des: 2022-017 Owner: SPXS Country: US Constellation: starlink
LEOCIRCULAR

关于 Starlink 3623

正在加载描述...

实时位置

正在加载3D地球...

即将过境

高度历史

Altitude vs Time

uPlot chart will show altitude changes over time

两行轨道根数

1 51772U 22017E 25307.94503318 -.00000361 00000-0 -45772-5 0 9996
2 51772 53.2153 183.6107 0002086 93.0848 267.0383 15.08839116203610
Epoch: Nov 3, 2025 • Age: 18 hours

当前状态

高度 540.0 km
速度 7.60 km/s
星下点 23.84°N, 89.18°W
发射日期 Feb 25, 2022
运行时间 3.6 years
类型 internet

技术详情

分类 Payload
质量 297.00 kg
干质量 275.00 kg
总质量 297.00 kg
长度 0.20 m
直径 2.80 m
跨度 9.00 m
形状 Box + pan
制造商 SPXS
平台类型 Starlink
阶段状态 In Orbit
所有者/国家 SPXS/US

大型星座

Loading constellations...